15min,AgWx,beryljct,423,29MAY2019:00:00:00,47.1,12.92,44.7,44.9,45.1,45.4,44.8,99,99,99,1.000,44.8,45.1,44.6,1.732,2.3,311,6.3,3.0,-0.00017,-0.00022,52.3,52.2,11,0,.,.,15.99,0.00,0.00
15min,AgWx,beryljct,423,29MAY2019:00:15:00,46.2,12.9,43.3,43.0,43.5,44.8,42.9,98,99,98,0.928,43.0,44.5,42.4,2.302,2.9,302,9.6,3.7,-0.00015,-0.00019,52.2,52.2,11,0,.,.,15.99,0.00,0.00
15min,AgWx,beryljct,423,29MAY2019:00:30:00,45.1,12.9,42.8,42.7,42.9,43.6,42.6,99,99,99,0.923,42.6,43.4,42.3,0,0.9,318,0.7,2.7,-0.00020,-0.00029,52.2,52.2,11,0,.,.,15.98,0.00,0.00
15min,AgWx,beryljct,423,29MAY2019:00:45:00,44.2,12.89,40.8,41.5,42.4,43.2,41.4,99,99,98,0.879,42.1,43.0,40.9,1.863,1.7,318,1.0,2.6,-0.00017,-0.00023,52.1,52.2,11,0,.,.,15.99,0.00,0.00
15min,AgWx,beryljct,423,29MAY2019:01:00:00,43.2,12.87,39.5,39.9,40.1,42.0,38.7,99,100,98,0.832,39.8,41.9,38.3,0,0.5,307,8.1,2.3,-0.00020,-0.00031,52.0,52.2,11,0,.,.,15.98,0.00,0.00
15min,AgWx,beryljct,423,29MAY2019:01:15:00,42.2,12.87,38.3,38.8,39.5,40.8,38.7,100,100,99,0.796,39.5,40.8,38.6,0.833,1.2,292,0.1,2.8,-0.00018,-0.00026,51.9,52.2,11,0,.,.,15.99,0.00,0.00
15min,AgWx,beryljct,423,29MAY2019:01:30:00,41.3,12.87,38.9,38.9,38.3,38.9,38.0,100,100,99,0.802,38.2,38.9,37.9,1.644,1.5,242,52,3.1,-0.00017,-0.00023,51.8,52.2,11,0,.,.,15.99,0.00,0.00
15min,AgWx,beryljct,423,29MAY2019:01:45:00,41.1,12.86,40.8,40.7,39.2,40.7,38.3,100,100,100,0.861,39.2,40.7,38.3,1.052,2.2,199,8.3,3.5,-0.00016,-0.00020,51.7,52.2,11,0,.,.,15.98,0.00,0.00
15min,AgWx,beryljct,423,29MAY2019:02:00:00,41.6,12.86,42.8,42.5,42.1,43.1,40.6,100,100,100,0.922,42.2,43.1,40.6,2.543,1.4,194,15,2.7,-0.00018,-0.00025,51.6,52.2,11,0,.,.,15.98,0.00,0.00
15min,AgWx,beryljct,423,29MAY2019:02:15:00,42.4,12.85,40.1,40.4,42.2,43.4,40.4,100,100,100,0.850,42.2,43.4,40.3,1.074,1.8,186,9.9,2.9,-0.00017,-0.00023,51.5,52.2,11,0,.,.,15.98,0.00,0.00
15min,AgWx,beryljct,423,29MAY2019:02:30:00,42.4,12.85,41.2,41.0,40.6,41.2,40.2,100,100,100,0.873,40.5,41.2,40.1,0.482,0.3,207,4.0,1.0,-0.00021,-0.00033,51.4,52.1,11,0,.,.,15.98,0.00,0.00
15min,AgWx,beryljct,423,29MAY2019:02:45:00,42.1,12.84,38.4,38.6,40.6,41.4,38.6,100,100,100,0.791,40.6,41.4,38.5,2.302,0.6,201,3.0,2.3,-0.00021,-0.00031,51.3,52.1,11,0,.,.,15.98,0.00,0.00
15min,AgWx,beryljct,423,29MAY2019:03:00:00,41.5,12.85,39.1,39.5,39.0,40.2,38.1,100,100,100,0.822,38.9,40.2,38.0,0.899,2.3,277,21,4.1,-0.00015,-0.00020,51.2,52.1,11,0,.,.,15.98,0.00,0.00
15min,AgWx,beryljct,423,29MAY2019:03:15:00,40.9,12.84,39.6,39.1,38.8,39.4,38.4,100,100,100,0.809,38.9,39.4,38.4,0,0.5,287,0.0,1.3,-0.00020,-0.00030,51.1,52.1,11,0,.,.,15.98,0.00,0.00
15min,AgWx,beryljct,423,29MAY2019:03:30:00,40.3,12.84,38.2,37.5,38.0,39.2,37.1,100,100,100,0.759,38.0,39.2,37.1,2.192,2.1,300,16,3.8,-0.00016,-0.00020,51.0,52.1,11,0,.,.,15.99,0.00,0.00
15min,AgWx,beryljct,423,29MAY2019:03:45:00,39.6,12.82,36.4,36.5,37.5,39.3,36.5,100,100,100,0.730,37.5,39.3,36.4,0,0.5,351,0.0,2.2,-0.00020,-0.00029,50.9,52.0,11,0,.,.,15.98,0.00,0.00
15min,AgWx,beryljct,423,29MAY2019:04:00:00,39.0,12.82,38.9,38.3,37.7,38.7,36.3,100,100,100,0.786,37.7,38.7,36.3,0.548,0.4,351,0.0,0.9,-0.00020,-0.00031,50.8,52.0,11,0,.,.,15.98,0.00,0.00
15min,AgWx,beryljct,423,29MAY2019:04:15:00,38.5,12.81,38.0,37.5,37.1,38.6,35.9,100,100,100,0.759,37.1,38.6,35.9,0.745,0.4,347,1.3,1.6,-0.00020,-0.00030,50.6,52.0,11,0,.,.,15.98,0.00,0.00
15min,AgWx,beryljct,423,29MAY2019:04:30:00,38.1,12.82,35.7,35.6,36.3,38.1,35.3,100,100,100,0.704,36.3,38.1,35.3,2.324,2.4,122,62,4.4,0.00001,0.00001,50.5,51.9,11,0,.,.,15.99,0.01,0.00
15min,AgWx,beryljct,423,29MAY2019:04:45:00,38.0,12.8,36.9,36.7,36.2,36.7,35.6,100,100,100,0.736,36.2,36.7,35.6,0.965,1.6,151,0.8,3.2,0.00001,0.00001,50.4,51.9,11,0,.,.,15.98,0.00,0.00
15min,AgWx,beryljct,423,29MAY2019:05:00:00,38.5,12.81,38.1,37.7,37.1,37.7,36.6,100,100,100,0.768,37.1,37.7,36.6,0,0.3,149,3.6,1.3,0.00001,0.00001,50.3,51.9,11,0,.,.,15.98,0.00,0.00
15min,AgWx,beryljct,423,29MAY2019:05:15:00,39.4,12.81,40.3,39.9,38.8,39.9,37.7,100,100,100,0.834,38.8,39.9,37.7,0,0.2,151,0.0,0.8,0.00001,0.00001,50.2,51.9,11,1,.,.,15.98,0.00,0.00
15min,AgWx,beryljct,423,29MAY2019:05:30:00,40.4,12.8,41.1,41.0,40.8,41.3,39.9,100,100,100,0.870,40.8,41.3,39.9,1.973,0.2,151,0.0,2.0,0.00003,0.00003,50.1,51.8,11,5,.,.,15.98,0.00,0.00
15min,AgWx,beryljct,423,29MAY2019:05:45:00,41.5,12.82,42.4,42.2,41.3,42.2,40.9,100,100,100,0.911,41.3,42.2,40.9,0.68,0.9,148,1.3,2.0,0.00009,0.00009,49.9,51.8,11,17,.,.,15.98,0.00,0.00
15min,AgWx,beryljct,423,29MAY2019:06:00:00,42.4,12.84,42.5,42.4,42.2,42.5,42.0,100,100,100,0.921,42.2,42.5,42.0,0.417,0.7,136,16,2.0,0.00018,0.00019,49.8,51.7,11,34,.,.,15.98,0.00,0.00
15min,AgWx,beryljct,423,29MAY2019:06:15:00,43.3,12.86,43.3,43.1,42.8,43.2,42.3,100,100,100,0.945,42.8,43.2,42.3,0.986,0.2,115,3.1,1.4,0.00026,0.00028,49.7,51.7,11,48,.,.,15.98,0.00,0.00
15min,AgWx,beryljct,423,29MAY2019:06:30:00,44.0,12.86,43.4,43.3,43.4,43.6,43.2,100,100,100,0.954,43.4,43.6,43.2,0,1.1,120,77,2.7,0.00027,0.00029,49.6,51.6,11,51,.,.,15.98,0.00,0.00
15min,AgWx,beryljct,423,29MAY2019:06:45:00,44.5,12.86,43.8,43.6,43.6,43.7,43.3,100,100,100,0.964,43.6,43.8,43.3,0,0.4,164,22,2.5,0.00018,0.00019,49.6,51.6,11,33,.,.,15.98,0.00,0.00
15min,AgWx,beryljct,423,29MAY2019:07:00:00,44.9,12.91,43.4,43.4,43.5,43.7,43.4,100,100,100,0.956,43.5,43.7,43.4,0,0.5,57,38,1.7,0.00031,0.00033,49.5,51.6,11,58,.,.,15.98,0.01,0.00
15min,AgWx,beryljct,423,29MAY2019:07:15:00,45.5,13.01,44.5,43.7,43.7,44.0,43.4,100,100,100,0.969,43.7,44.0,43.4,1.929,0.7,19,23,2.1,0.00073,0.00078,49.5,51.5,11,140,.,.,15.98,0.00,0.00
15min,AgWx,beryljct,423,29MAY2019:07:30:00,46.5,13.21,45.4,45.3,44.6,45.4,43.9,100,100,100,1.029,44.7,45.4,43.9,2.916,2.6,357,18,4.0,0.00135,0.00144,49.4,51.5,10,312,.,.,15.98,0.00,0.00
15min,AgWx,beryljct,423,29MAY2019:07:45:00,48.2,13.24,46.3,46.6,46.0,46.9,45.2,100,100,100,1.081,46.0,46.9,45.2,4.077,3.9,344,15,5.5,0.00174,0.00185,49.4,51.4,11,411,.,.,15.98,0.00,0.00
15min,AgWx,beryljct,423,29MAY2019:08:00:00,50.2,13.3,47.4,47.3,47.0,47.7,46.5,98,100,95,1.058,46.5,47.1,45.9,0.921,3.2,354,17,5.5,0.00197,0.00211,49.3,51.4,11,441,.,.,15.98,0.00,0.00
15min,AgWx,beryljct,423,29MAY2019:08:15:00,52.2,13.54,49.2,49.0,48.0,49.1,47.3,95,97,93,1.119,46.8,48.0,45.9,3.069,2.5,24,28,6.0,0.00248,0.00266,49.3,51.4,11,529,.,.,15.98,0.00,0.00
15min,AgWx,beryljct,423,29MAY2019:08:30:00,54.4,14.04,48.6,48.9,49.2,49.8,48.6,94,96,92,1.089,47.6,48.5,46.6,1.578,3.1,50,18,5.2,0.00261,0.00281,49.3,51.3,10,552,.,.,15.98,0.00,0.00
15min,AgWx,beryljct,423,29MAY2019:08:45:00,56.0,13.92,48.7,50.3,50.3,51.1,49.0,93,96,90,1.142,48.3,49.3,47.1,6.555,4.8,63,17,6.9,0.00291,0.00314,49.3,51.3,10,625,.,.,15.98,0.00,0.00
15min,AgWx,beryljct,423,29MAY2019:09:00:00,56.6,14.34,50.5,50.7,50.4,51.1,49.7,91,93,88,1.126,48.0,48.8,46.9,3.814,3.5,61,16,7.1,0.00179,0.00195,49.4,51.2,11,348,.,.,15.98,0.00,0.00
15min,AgWx,beryljct,423,29MAY2019:09:15:00,57.4,14.31,53.1,52.9,52.4,54.0,50.5,86,95,79,1.105,48.2,49.5,46.5,5.459,5.2,65,17,9.8,0.00294,0.00324,49.4,51.2,10,595,.,.,15.98,0.00,0.00
15min,AgWx,beryljct,423,29MAY2019:09:30:00,58.8,14.27,54.3,54.2,53.9,55.5,52.7,80,84,76,1.133,47.8,50.3,46.6,6.401,5.8,50,17,9.4,0.00373,0.00415,49.4,51.2,10,745,.,.,15.97,0.00,0.00
15min,AgWx,beryljct,423,29MAY2019:09:45:00,60.2,14.25,54.2,54.9,54.6,55.6,53.5,77,79,73,1.127,47.5,48.7,46.0,4.472,5.1,40,21,8.5,0.00394,0.00438,49.5,51.2,10,762,.,.,15.97,0.00,0.00
15min,AgWx,beryljct,423,29MAY2019:10:00:00,60.1,14.29,54.6,54.2,54.0,54.8,53.3,76,78,72,1.074,46.6,48.1,44.9,7.19,6.0,29,19,9.1,0.00265,0.00304,49.6,51.1,10,481,.,.,15.97,0.00,0.00
15min,AgWx,beryljct,423,29MAY2019:10:15:00,60.2,14.27,54.0,54.5,54.5,55.5,53.9,72,75,69,1.067,45.9,47.7,44.0,1.052,6.1,17,29,9.8,0.00386,0.00437,49.7,51.1,10,741,.,.,15.97,0.00,0.00
15min,AgWx,beryljct,423,29MAY2019:10:30:00,60.8,14.24,56.5,56.1,55.5,57.4,54.1,72,76,69,1.079,46.6,49.8,44.6,0.921,4.5,27,35,9.5,0.00426,0.00474,49.8,51.1,11,799,.,.,15.97,0.00,0.00
15min,AgWx,beryljct,423,29MAY2019:10:45:00,61.2,14.26,54.9,55.3,55.7,56.2,55.3,71,75,68,1.047,46.5,48.4,45.5,6.094,5.6,13,19,8.9,0.00301,0.00346,49.9,51.1,10,525,.,.,15.97,0.00,0.00
15min,AgWx,beryljct,423,29MAY2019:11:00:00,61.5,14.25,56.4,57.3,56.9,57.7,55.3,67,70,61,0.986,46.0,47.5,44.0,6.927,5.3,19,20,8.6,0.00501,0.00562,50.1,51.1,10,923,.,.,15.97,0.00,0.00
15min,AgWx,beryljct,423,29MAY2019:11:15:00,62.9,13.79,59.5,58.6,58.2,59.0,57.1,60,67,57,0.968,44.5,48.2,42.8,4.604,5.5,17,19,9.7,0.00613,0.00689,50.3,51.0,10,1108,.,.,15.96,0.00,0.00
15min,AgWx,beryljct,423,29MAY2019:11:30:00,64.1,13.79,57.5,57.2,57.8,58.9,56.9,59,66,56,1.013,43.6,47.1,42.1,3.288,2.3,11,48,8.8,0.00338,0.00378,50.5,51.1,11,543,.,.,15.97,0.00,0.00
15min,AgWx,beryljct,423,29MAY2019:11:45:00,64.2,13.88,60.8,59.3,58.2,59.5,57.2,62,68,56,1.051,45.2,47.5,42.7,5.656,4.4,13,21,7.9,0.00536,0.00599,50.7,51.1,11,959,.,.,15.96,0.00,0.00
15min,AgWx,beryljct,423,29MAY2019:12:00:00,65.0,13.77,57.7,58.7,59.6,60.6,58.6,60,65,55,0.951,45.8,48.7,42.7,3.288,4.6,355,46,8.7,0.00602,0.00672,51.0,51.1,11,1053,.,.,15.96,0.00,0.00
15min,AgWx,beryljct,423,29MAY2019:12:15:00,65.9,13.76,60.4,60.2,59.9,60.7,58.6,57,61,53,1.025,44.6,47.2,42.0,4.056,3.9,348,48,8.5,0.00618,0.00688,51.3,51.1,11,1066,.,.,15.96,0.00,0.00
15min,AgWx,beryljct,423,29MAY2019:12:30:00,66.4,13.75,61.0,60.7,60.2,61.3,59.5,56,63,52,1.027,44.5,48.5,42.0,4.779,4.4,304,43,8.1,0.00599,0.00672,51.6,51.1,11,1032,.,.,15.96,0.00,0.00
15min,AgWx,beryljct,423,29MAY2019:12:45:00,67.0,13.76,61.3,61.3,60.7,61.7,59.9,55,59,50,1.061,44.3,47.1,41.8,7.147,4.1,306,46,9.7,0.00634,0.00709,51.9,51.2,10,1080,.,.,15.96,0.00,0.00
15min,AgWx,beryljct,423,29MAY2019:13:00:00,67.8,13.74,59.6,61.5,61.4,62.5,60.5,54,59,49,0.943,44.8,47.8,42.2,4.187,3.2,9.4,30,7.9,0.00668,0.00739,52.3,51.2,10,1118,.,.,15.95,0.00,0.00
15min,AgWx,beryljct,423,29MAY2019:13:15:00,68.8,13.73,61.5,62.5,61.5,62.5,60.6,52,58,48,1.083,43.6,47.3,40.9,6.335,3.8,332,26,8.0,0.00642,0.00717,52.7,51.3,11,1065,.,.,15.95,0.00,0.00
15min,AgWx,beryljct,423,29MAY2019:13:30:00,69.0,13.75,61.8,62.6,62.0,63.1,61.2,53,59,49,1.023,44.7,48.3,42.1,3.42,4.5,339,35,8.6,0.00558,0.00634,53.1,51.4,11,947,.,.,15.95,0.00,0.00
15min,AgWx,beryljct,423,29MAY2019:13:45:00,69.0,13.73,62.6,62.2,62.5,63.9,61.7,51,56,47,0.990,44.3,48.0,41.8,2.302,3.1,22,35,7.8,0.00537,0.00601,53.6,51.4,11,891,.,.,15.94,0.00,0.00
15min,AgWx,beryljct,423,29MAY2019:14:00:00,69.3,13.65,62.9,63.6,63.1,64.0,62.3,51,58,45,0.959,44.6,48.0,41.4,3.179,3.4,38,90,12.1,0.00631,0.00704,54.1,51.5,10,1034,.,.,15.94,0.00,0.00
15min,AgWx,beryljct,423,29MAY2019:14:15:00,70.2,13.65,62.2,62.7,63.3,64.0,62.7,47,52,43,0.983,42.9,45.8,40.2,3.464,3.4,340,37,6.9,0.00533,0.00602,54.6,51.6,11,864,.,.,15.94,0.00,0.00
15min,AgWx,beryljct,423,29MAY2019:14:30:00,69.8,13.7,59.2,59.5,61.2,62.7,59.5,57,63,46,1.101,45.9,48.7,41.3,5.086,5.8,161,59,11.9,0.00204,0.00262,55.2,51.8,10,251,.,.,15.94,0.00,0.00
15min,AgWx,beryljct,423,29MAY2019:14:45:00,67.5,13.75,59.2,58.9,59.2,59.7,58.6,63,65,60,1.087,46.5,47.4,45.6,8.97,8.7,141,16,12.5,0.00233,0.00299,55.7,51.9,10,333,.,.,15.95,0.01,0.00
15min,AgWx,beryljct,423,29MAY2019:15:00:00,66.6,13.74,60.1,60.7,60.1,61.1,59.0,65,67,62,1.208,48.2,49.8,46.7,10.17,9.8,127,14,13.5,0.00441,0.00522,56.1,52.0,11,806,.,.,15.94,0.00,0.00
15min,AgWx,beryljct,423,29MAY2019:15:15:00,66.7,13.78,59.8,59.9,61.0,62.0,59.9,62,66,60,1.082,47.9,49.6,46.0,6.774,9.5,128,12,13.7,0.00439,0.00524,56.5,52.1,11,777,.,.,15.94,0.00,0.00
15min,AgWx,beryljct,423,29MAY2019:15:30:00,67.1,13.7,60.7,61.0,61.5,62.6,59.9,59,64,56,1.066,47.2,48.8,45.8,9.14,7.9,140,15,11.5,0.00430,0.00510,56.8,52.3,10,743,.,.,15.94,0.00,0.00
15min,AgWx,beryljct,423,29MAY2019:15:45:00,67.7,13.66,62.7,62.8,62.3,63.0,61.0,59,62,58,1.152,48.0,49.7,46.2,7.958,7.0,141,14,11.3,0.00443,0.00521,57.1,52.5,11,757,.,.,15.94,0.00,0.00
15min,AgWx,beryljct,423,29MAY2019:16:00:00,68.6,13.64,62.4,63.7,63.4,64.1,62.7,57,61,52,1.073,48.0,49.8,45.6,7.344,6.4,162,18,10.3,0.00427,0.00504,57.3,52.6,10,710,.,.,15.94,0.00,0.00
15min,AgWx,beryljct,423,29MAY2019:16:15:00,69.2,13.63,63.0,63.4,63.7,64.0,63.3,51,57,47,0.948,45.3,48.3,43.0,4.779,7.0,188,16,9.9,0.00405,0.00492,57.5,52.8,11,652,.,.,15.95,0.00,0.00
15min,AgWx,beryljct,423,29MAY2019:16:30:00,69.6,13.64,63.1,63.7,64.0,64.7,63.4,48,51,44,0.949,43.7,45.8,41.8,3.42,5.2,194,22,9.1,0.00394,0.00471,57.8,52.9,11,634,.,.,15.94,0.00,0.00
15min,AgWx,beryljct,423,29MAY2019:16:45:00,69.7,13.66,63.2,64.1,63.9,64.4,63.2,46,49,42,0.982,42.7,44.7,40.4,4.297,3.3,201,23,6.3,0.00264,0.00317,58.0,53.1,10,438,.,.,15.95,0.00,0.00
15min,AgWx,beryljct,423,29MAY2019:17:00:00,68.9,13.68,62.9,62.9,63.0,63.9,61.8,50,58,42,0.997,44.0,47.2,40.1,5.064,3.5,198,15,5.2,0.00175,0.00221,58.2,53.2,11,303,.,.,15.95,0.00,0.00
15min,AgWx,beryljct,423,29MAY2019:17:15:00,67.8,13.72,62.8,63.1,62.9,63.4,62.2,49,56,44,1.083,43.7,47.6,41.1,3.464,4.1,203,7.7,6.1,0.00167,0.00218,58.4,53.4,11,280,.,.,15.94,0.00,0.00
15min,AgWx,beryljct,423,29MAY2019:17:30:00,66.7,13.74,62.6,62.6,62.3,63.0,61.7,51,55,47,0.969,44.0,46.3,42.4,3.179,3.6,186,11,5.3,0.00112,0.00153,58.5,53.5,11,197,.,.,15.95,0.00,0.00
15min,AgWx,beryljct,423,29MAY2019:17:45:00,65.6,13.77,60.9,61.0,61.8,62.8,61.0,54,60,48,1.060,45.1,47.8,42.3,3.244,2.6,195,2.0,3.5,0.00070,0.00098,58.6,53.6,11,148,.,.,15.95,0.00,0.00
15min,AgWx,beryljct,423,29MAY2019:18:00:00,64.4,13.77,60.5,60.5,60.5,61.1,60.1,62,67,58,1.122,47.4,49.3,46.0,1.732,2.3,200,0.5,3.3,0.00057,0.00078,58.7,53.8,11,151,.,.,15.95,0.00,0.00
15min,AgWx,beryljct,423,29MAY2019:18:15:00,64.4,13.76,63.6,64.0,62.8,64.0,60.5,51,63,45,0.997,44.1,47.9,41.6,0,1.0,194,3.6,2.2,0.00162,0.00183,58.7,53.9,11,323,.,.,15.95,0.00,0.00
15min,AgWx,beryljct,423,29MAY2019:18:30:00,65.6,13.35,62.3,62.7,63.5,64.3,62.5,51,57,46,1.064,45.1,47.3,42.8,1.776,1.6,152,28,3.4,0.00131,0.00156,58.7,54.0,11,268,.,.,15.95,0.00,0.00
15min,AgWx,beryljct,423,29MAY2019:18:45:00,66.3,13.22,61.9,62.2,62.4,62.7,62.2,54,57,50,1.060,45.7,47.0,43.8,1.688,2.0,133,6.1,3.1,0.00087,0.00112,58.7,54.1,11,195,.,.,15.95,0.00,0.00
15min,AgWx,beryljct,423,29MAY2019:19:00:00,65.7,13.19,59.4,60.0,61.3,62.2,60.0,59,64,55,1.125,47.0,48.3,45.8,2.039,1.5,136,0.8,2.1,0.00010,0.00017,58.7,54.3,11,81,.,.,15.95,0.00,0.00
15min,AgWx,beryljct,423,29MAY2019:19:15:00,63.8,13.17,58.3,59.7,60.3,61.0,59.4,56,70,50,1.011,44.4,49.7,42.0,1.535,1.7,140,0.1,2.5,-0.00002,0.00000,58.7,54.4,11,36,.,.,15.95,0.00,0.00
15min,AgWx,beryljct,423,29MAY2019:19:30:00,61.8,13.14,53.4,54.6,56.3,59.5,54.6,74,77,59,1.113,47.9,49.5,45.2,0.175,0.7,140,0.0,1.5,-0.00015,-0.00022,58.6,54.5,11,34,.,.,15.95,0.00,0.00
15min,AgWx,beryljct,423,29MAY2019:19:45:00,59.3,13.11,52.0,53.0,53.9,54.5,53.0,78,83,76,1.135,47.1,47.9,46.7,0,0.1,140,0.1,0.6,-0.00029,-0.00046,58.5,54.6,11,7,.,.,15.96,0.00,0.00
15min,AgWx,beryljct,423,29MAY2019:20:00:00,56.8,13.1,49.2,49.2,49.8,52.9,48.7,85,87,82,1.020,45.5,48.4,44.9,2.784,1.1,198,0.4,3.1,-0.00022,-0.00032,58.4,54.7,11,2,.,.,15.96,0.01,0.00
15min,AgWx,beryljct,423,29MAY2019:20:15:00,54.4,13.08,49.4,49.5,49.0,49.5,48.6,86,88,82,0.993,45.0,45.6,44.4,1.82,1.7,198,0.1,2.8,-0.00019,-0.00025,58.4,54.7,10,0,.,.,15.97,0.00,0.00
15min,AgWx,beryljct,423,29MAY2019:20:30:00,52.6,13.06,49.2,49.7,48.8,49.9,48.1,83,86,80,1.022,44.0,45.1,43.4,1.074,0.7,198,0.1,2.0,-0.00025,-0.00037,58.2,54.8,11,0,.,.,15.97,0.00,0.00
15min,AgWx,beryljct,423,29MAY2019:20:45:00,51.4,13.04,51.2,51.4,51.0,51.7,49.5,77,86,72,0.943,44.0,45.7,43.0,1.995,0.8,195,5.6,2.2,-0.00024,-0.00035,58.1,54.9,11,0,.,.,15.97,0.00,0.00
15min,AgWx,beryljct,423,29MAY2019:21:00:00,50.5,13.03,46.6,46.3,48.7,51.4,46.3,83,91,73,0.957,43.7,44.4,42.9,2.74,1.7,186,0.9,3.0,-0.00018,-0.00024,57.9,54.9,11,0,.,.,15.97,0.00,0.00
15min,AgWx,beryljct,423,29MAY2019:21:15:00,49.6,13.02,45.3,45.8,46.5,48.7,45.3,90,94,86,0.970,43.8,45.3,42.7,1.535,1.6,183,5.7,3.5,-0.00020,-0.00027,57.8,55.0,11,0,.,.,15.97,0.00,0.00
15min,AgWx,beryljct,423,29MAY2019:21:30:00,48.6,13.01,45.1,46.7,45.9,47.8,45.0,89,92,86,0.953,42.8,44.5,42.0,2.214,2.3,184,9.7,3.3,-0.00017,-0.00021,57.6,55.0,11,0,.,.,15.97,0.00,0.00
15min,AgWx,beryljct,423,29MAY2019:21:45:00,47.8,13.02,45.9,45.8,45.2,46.6,44.4,92,93,88,0.958,42.9,43.5,42.2,1.403,2.5,182,6.6,3.5,-0.00016,-0.00021,57.4,55.0,11,0,.,.,15.97,0.00,0.00
15min,AgWx,beryljct,423,29MAY2019:22:00:00,47.1,13.01,44.1,43.8,44.8,45.9,43.7,88,92,85,0.871,41.3,43.6,40.3,1.271,0.9,197,4.4,2.1,-0.00023,-0.00032,57.2,55.1,11,0,.,.,15.98,0.00,0.00
15min,AgWx,beryljct,423,29MAY2019:22:15:00,46.4,13,44.4,46.3,44.5,46.6,43.6,90,93,84,0.899,41.7,42.5,41.0,0.088,1.7,100,66,3.6,-0.00019,-0.00025,57.0,55.1,11,0,.,.,15.98,0.00,0.00
15min,AgWx,beryljct,423,29MAY2019:22:30:00,45.8,12.99,42.4,41.6,42.7,46.2,41.3,91,95,84,0.840,40.3,41.7,39.5,1.841,1.1,153,30,2.9,-0.00022,-0.00031,56.8,55.1,11,0,.,.,15.98,0.00,0.00
15min,AgWx,beryljct,423,29MAY2019:22:45:00,45.1,12.97,44.0,43.6,42.9,44.1,41.3,94,97,91,0.887,41.4,42.4,39.8,1.359,1.7,164,1.8,2.5,-0.00019,-0.00026,56.6,55.1,11,0,.,.,15.98,0.00,0.00
15min,AgWx,beryljct,423,29MAY2019:23:00:00,44.5,12.97,48.1,47.2,43.8,47.2,42.3,93,97,85,0.936,41.8,43.4,40.4,0.307,0.8,163,0.0,1.5,-0.00023,-0.00034,56.4,55.1,11,0,.,.,15.98,0.00,0.00
15min,AgWx,beryljct,423,29MAY2019:23:15:00,44.2,12.96,41.6,41.3,42.8,47.3,41.1,91,96,84,0.846,40.3,42.8,39.0,0,1.7,66,13,5.7,-0.00019,-0.00025,56.2,55.1,11,0,.,.,15.98,0.00,0.00
15min,AgWx,beryljct,423,29MAY2019:23:30:00,43.6,12.96,42.4,41.9,41.3,41.9,40.8,96,97,95,0.870,40.2,41.0,39.4,0.438,0.2,53,2.6,0.7,-0.00026,-0.00041,56.0,55.1,11,0,.,.,15.98,0.00,0.00
15min,AgWx,beryljct,423,29MAY2019:23:45:00,43.3,12.95,41.7,41.7,42.0,43.0,41.3,95,97,91,0.855,40.7,41.8,39.2,2.499,1.2,343,26,3.0,-0.00022,-0.00030,55.8,55.1,11,0,.,.,15.98,0.00,0.00
15min,AgWx,bigpiney,439,29MAY2019:00:00:00,43.0,12.7,39.4,39.3,39.6,39.8,39.3,90,90,89,0.734,36.9,37.1,36.6,2.105,1.9,202,13,2.6,0.00003,0.00005,48.0,44.2,55,0,1,0.0,3.08,0.00,0.00
15min,AgWx,bigpiney,439,29MAY2019:00:15:00,43.0,12.7,39.8,39.4,39.3,39.4,39.2,91,91,90,0.746,36.8,37.0,36.6,1.688,2.0,216,5.3,2.7,0.00003,0.00005,48.0,44.1,55,0,1,0.0,3.08,0.00,0.00
15min,AgWx,bigpiney,439,29MAY2019:00:30:00,43.0,12.68,40.3,39.9,39.7,39.9,39.4,91,91,91,0.761,37.3,37.6,37.0,2.17,1.5,190,11,2.8,0.00003,0.00004,47.9,44.1,55,0,1,0.0,3.08,0.00,0.00
15min,AgWx,bigpiney,439,29MAY2019:00:45:00,43.1,12.68,40.6,40.2,40.1,40.4,39.9,90,91,89,0.749,37.4,37.5,37.1,2.74,2.7,182,9.5,3.7,0.00004,0.00006,47.8,44.1,55,0,1,0.0,3.08,0.00,0.00
15min,AgWx,bigpiney,439,29MAY2019:01:00:00,43.2,12.67,40.9,40.7,40.5,40.7,40.3,88,89,86,0.745,37.1,37.3,36.7,2.981,3.9,190,12,6.3,0.00006,0.00008,47.7,44.1,55,0,1,0.0,3.08,0.00,0.00
15min,AgWx,bigpiney,439,29MAY2019:01:15:00,43.4,12.65,40.9,40.5,40.6,40.7,40.5,87,87,86,0.740,37.0,37.1,36.8,5.305,4.7,193,7.7,6.1,0.00007,0.00010,47.7,44.1,55,0,1,0.0,3.08,0.00,0.00
15min,AgWx,bigpiney,439,29MAY2019:01:30:00,43.5,12.65,40.8,40.5,40.5,40.7,40.4,87,88,86,0.744,37.0,37.2,36.8,4.056,3.8,184,9.2,5.7,0.00006,0.00009,47.6,44.2,55,0,1,0.0,3.08,0.00,0.00
15min,AgWx,bigpiney,439,29MAY2019:01:45:00,43.6,12.65,40.7,40.5,40.5,40.7,40.4,87,87,86,0.744,36.9,37.1,36.8,3.42,3.6,198,11,6.0,0.00006,0.00009,47.5,44.1,55,0,1,0.0,3.08,0.00,0.00
15min,AgWx,bigpiney,439,29MAY2019:02:00:00,43.7,12.63,40.9,40.5,40.5,40.6,40.4,87,88,87,0.748,37.0,37.2,36.9,5.568,4.0,204,9.3,6.2,0.00006,0.00009,47.4,44.1,55,0,1,0.0,3.08,0.00,0.00
15min,AgWx,bigpiney,439,29MAY2019:02:15:00,43.7,12.63,40.9,40.5,40.5,40.7,40.5,88,88,87,0.751,37.2,37.4,37.1,4.121,4.0,190,7.1,5.3,0.00006,0.00008,47.4,44.1,55,0,1,0.0,3.08,0.00,0.00
15min,AgWx,bigpiney,439,29MAY2019:02:30:00,43.7,12.62,40.8,40.5,40.5,40.6,40.5,88,89,88,0.756,37.3,37.5,37.2,2.696,3.2,186,7.6,4.3,0.00005,0.00007,47.3,44.0,55,0,1,0.0,3.08,0.00,0.00
15min,AgWx,bigpiney,439,29MAY2019:02:45:00,43.7,12.61,40.7,40.5,40.4,40.6,40.3,88,89,88,0.754,37.2,37.5,37.1,2.718,2.7,178,9.2,4.2,0.00005,0.00007,47.2,44.1,55,0,1,0.0,3.08,0.00,0.00
15min,AgWx,bigpiney,439,29MAY2019:03:00:00,43.7,12.61,40.7,40.4,40.5,40.6,40.4,88,89,88,0.755,37.3,37.4,37.1,1.447,2.5,200,8.0,3.9,0.00005,0.00007,47.1,44.1,55,0,1,0.0,3.08,0.00,0.00
15min,AgWx,bigpiney,439,29MAY2019:03:15:00,43.6,12.59,40.4,40.1,40.4,40.5,40.1,89,89,88,0.748,37.3,37.4,37.1,1.535,1.5,185,11,2.3,0.00003,0.00005,47.1,44.1,55,0,1,0.0,3.08,0.00,0.00
15min,AgWx,bigpiney,439,29MAY2019:03:30:00,43.5,12.58,40.5,40.1,40.1,40.2,39.9,89,90,89,0.754,37.1,37.3,36.9,0.614,1.2,164,7.7,2.0,0.00003,0.00004,47.0,44.0,55,0,1,0.0,3.08,0.00,0.00
15min,AgWx,bigpiney,439,29MAY2019:03:45:00,43.4,12.58,40.5,40.2,40.2,40.3,40.1,89,90,89,0.751,37.2,37.4,37.0,2.324,1.7,148,4.1,2.9,0.00003,0.00005,46.9,44.0,55,0,1,0.0,3.08,0.00,0.00
15min,AgWx,bigpiney,439,29MAY2019:04:00:00,43.4,12.56,40.5,40.2,40.1,40.2,40.0,89,90,89,0.751,37.3,37.4,37.1,1.776,2.3,129,9.4,3.0,0.00004,0.00006,46.9,44.0,55,0,1,0.0,3.08,0.00,0.00
15min,AgWx,bigpiney,439,29MAY2019:04:15:00,43.4,12.56,40.4,40.1,40.1,40.3,40.0,89,89,88,0.738,37.1,37.3,36.8,5.042,2.8,148,11,5.0,0.00005,0.00007,46.8,44.0,55,0,1,0.0,3.08,0.00,0.00
15min,AgWx,bigpiney,439,29MAY2019:04:30:00,43.3,12.54,40.2,39.9,40.1,40.2,39.9,87,88,87,0.730,36.6,36.8,36.4,4.362,5.1,168,7.0,7.1,0.00007,0.00010,46.7,44.0,55,0,0,0.0,3.08,0.00,0.00
15min,AgWx,bigpiney,439,29MAY2019:04:45:00,43.2,12.52,40.3,39.9,39.9,40.1,39.9,88,88,87,0.732,36.6,36.7,36.5,5.502,4.9,171,7.7,6.1,0.00007,0.00009,46.7,44.0,55,0,1,0.0,3.08,0.00,0.00
15min,AgWx,bigpiney,439,29MAY2019:05:00:00,43.1,12.52,40.3,40.0,40.0,40.1,39.9,88,88,88,0.740,36.7,36.9,36.6,3.727,4.2,171,7.5,5.9,0.00006,0.00009,46.6,44.0,55,2,0,0.0,3.08,0.00,0.00
15min,AgWx,bigpiney,439,29MAY2019:05:15:00,43.0,12.52,40.2,40.0,40.0,40.1,39.9,88,89,88,0.740,36.8,36.9,36.7,5.02,4.8,170,5.8,6.0,0.00009,0.00016,46.6,43.9,55,8,0,0.0,3.08,0.00,0.00
15min,AgWx,bigpiney,439,29MAY2019:05:30:00,43.0,12.52,40.6,40.1,40.0,40.1,39.9,88,88,88,0.737,36.7,36.8,36.6,4.231,4.3,177,6.8,5.7,0.00015,0.00022,46.5,43.9,55,14,0,0.0,3.08,0.00,0.00
15min,AgWx,bigpiney,439,29MAY2019:05:45:00,43.1,12.57,41.1,40.6,40.4,40.6,40.1,86,88,84,0.726,36.5,36.8,36.1,4.998,5.7,190,7.0,8.3,0.00020,0.00030,46.4,43.9,55,42,0,0.0,3.08,0.00,0.00
15min,AgWx,bigpiney,439,29MAY2019:06:00:00,43.3,12.61,40.7,40.7,40.7,40.8,40.6,85,85,84,0.724,36.4,36.6,36.2,9.89,7.3,184,8.4,10.4,0.00032,0.00046,46.4,43.9,55,62,0,0.0,3.08,0.00,0.00
15min,AgWx,bigpiney,439,29MAY2019:06:15:00,43.6,12.56,40.9,40.5,40.6,40.8,40.5,84,85,83,0.710,36.1,36.4,35.8,9.51,9.2,193,7.5,12.4,0.00041,0.00059,46.3,43.9,55,51,0,0.0,3.08,0.00,0.00
15min,AgWx,bigpiney,439,29MAY2019:06:30:00,43.7,12.57,40.6,40.5,40.5,40.6,40.4,84,85,83,0.717,36.0,36.4,35.8,9.65,8.3,193,8.0,11.2,0.00042,0.00059,46.2,43.9,55,53,0,0.0,3.08,0.00,0.00
15min,AgWx,bigpiney,439,29MAY2019:06:45:00,43.8,12.61,40.9,40.6,40.5,40.6,40.4,84,85,83,0.716,36.1,36.4,35.9,6.226,7.8,189,8.1,10.2,0.00045,0.00061,46.2,43.9,55,63,0,0.0,3.08,0.00,0.00
15min,AgWx,bigpiney,439,29MAY2019:07:00:00,43.9,12.68,41.1,40.8,40.8,40.9,40.6,84,85,83,0.718,36.3,36.6,36.0,5.809,7.2,189,7.8,9.8,0.00055,0.00071,46.1,43.8,55,95,0,0.0,3.08,0.00,0.00
15min,AgWx,bigpiney,439,29MAY2019:07:15:00,44.2,12.78,41.7,41.1,41.0,41.3,40.8,83,84,82,0.719,36.3,36.8,35.9,6.007,6.8,174,8.3,9.2,0.00066,0.00083,46.1,43.8,55,123,0,0.0,3.08,0.00,0.00
15min,AgWx,bigpiney,439,29MAY2019:07:30:00,44.5,12.97,41.9,41.5,41.4,41.6,41.1,82,84,81,0.727,36.3,36.8,35.9,8.92,6.9,171,9.4,9.3,0.00076,0.00095,46.0,43.8,55,146,0,0.0,3.08,0.00,0.00
15min,AgWx,bigpiney,439,29MAY2019:07:45:00,44.9,13.19,42.4,41.9,41.7,42.1,41.5,81,82,79,0.725,36.2,37.1,35.6,6.752,7.7,183,10,10.5,0.00092,0.00114,45.9,43.8,55,184,0,0.0,3.08,0.00,0.00
15min,AgWx,bigpiney,439,29MAY2019:08:00:00,45.4,13.31,42.0,42.0,42.0,42.3,41.8,80,82,79,0.722,36.4,37.4,35.8,7.3,7.4,177,11,9.9,0.00102,0.00125,45.9,43.8,55,209,0,0.0,3.08,0.00,0.00
15min,AgWx,bigpiney,439,29MAY2019:08:15:00,45.8,13.45,43.0,42.7,42.5,42.9,42.0,81,83,79,0.742,37.0,38.0,36.0,7.804,6.8,168,12,10.5,0.00122,0.00145,45.8,43.7,55,260,0,0.0,3.08,0.00,0.00